Flag for U.S.A. Weather past 2 weeks in Oxnard, California, U.S.A.

Now
58 °F

Sunny.


Feels Like: 57 °F
Forecast: 50 / 68 °F
Wind: 6 mph from West

Location: Oxnard Airport


UV Index: 7 (High)

Visibility: 8 mi


Pressure: 29.89 "Hg

Humidity: 78%

Dew point: 51 °F

Location of OxnardLocation

Historic Weather in Oxnard

°F

Oxnard temperature yesterday

Maximum temperature yesterday: 65 °F (at 2:51 PM)
Minimum temperature yesterday: 54 °F (at 5:03 AM)
Average temperature yesterday: 59 °F

Past Weeks' High & Low Weather Summary

 TemperatureHumidityPressure
High67 °F (Apr 23, 12:51 PM)100% (Apr 9, 1:51 AM)30.10 "Hg (Apr 9, 1:51 AM)
Low48 °F (Apr 10, 6:51 AM)42% (Apr 23, 12:51 PM)29.79 "Hg (Apr 16, 6:51 PM)
Average58 °F80%29.95 "Hg
* Reported Apr 8 6:51 PM — Apr 23 6:51 PM, Oxnard, Weather by CustomWeather, © 2014

Note: Actual official high and low records may vary slightly from our data, if they occured in-between our weather recording intervals... More about our weather records

Advertising

Historic Weather Conditions — Data for Previous 24 hours

 ConditionsComfort  
Time TempWeatherWind HumidityBarometerVisibility
6:51 PM
Apr 23
62 °FSunny.9 mph65%29.88 "Hg9 mi
5:51 PM63 °FSunny.10 mph63%29.90 "Hg9 mi
4:51 PM65 °FSunny.14 mph54%29.90 "Hg10 mi
3:51 PM66 °FSunny.14 mph54%29.91 "Hg10 mi
2:51 PM67 °FSunny.17 mph49%29.94 "Hg10 mi
1:51 PM67 °FSunny.15 mph51%29.95 "Hg10 mi
12:51 PM67 °FSunny.13 mph42%29.96 "Hg10 mi
11:51 AM64 °FSunny.10 mph52%29.98 "Hg10 mi
10:51 AM63 °FSunny.8 mph58%29.98 "Hg10 mi
9:51 AM63 °FSunny.5 mph48%29.96 "Hg10 mi
8:51 AM61 °FSunny.5 mph54%29.96 "Hg10 mi
7:51 AM54 °FSunny.No wind67%29.96 "Hg10 mi
6:51 AM50 °FClear.5 mph74%29.94 "Hg10 mi
5:51 AM49 °FClear.5 mph77%29.93 "Hg10 mi
4:51 AM49 °FClear.3 mph84%29.91 "Hg10 mi
3:51 AM50 °FClear.5 mph83%29.92 "Hg9 mi
2:51 AM52 °FClear.No wind83%29.93 "Hg8 mi
1:51 AM54 °FClear.7 mph80%29.93 "Hg8 mi
12:51 AM55 °FClear.No wind80%29.94 "Hg8 mi
11:51 PM
Apr 22
56 °FClear.7 mph77%29.93 "Hg8 mi
10:51 PM57 °FClear.5 mph74%29.92 "Hg8 mi
9:51 PM58 °FClear.No wind70%29.92 "Hg9 mi
8:51 PM58 °FClear.8 mph70%29.89 "Hg9 mi
Weather by CustomWeather, © 2014

See weather overview